Location: Newark
(7.1028°S, 35.3258°W)
Time: 16:33:16
(UTC+00:00)

Vanguard 3 - Pass Details

Date: 26 February 2020
Orbit: 508 x 3263 km, 33.4° (Epoch: 02 April)

Event Time Altitude Azimuth Distance (km) Brightness Sun altitude
Rises 18:00:00 0° 317° (NW) 5,379 11.8 39.1°
Reaches altitude 10° 18:03:05 10° 320° (NW) 4,690 11.5 38.3°
Maximum altitude 18:17:34 64° 40° (NE) 3,169 10.4 34.7°
Drops below altitude 10° 18:37:19 10° 116° (ESE) 6,178 11.3 29.8°
Sets 18:42:03 0° 119° (ESE) 7,102 11.5 28.7°
